IK0AOC Weather Reports


time (UTC)temp
C
wind
direction
speed
KPH
gust
KPH
rain 1hr
cm
rain 24hr
cm
rain mn
cm
humidity
%
barometer
mb
20260507073505 18 99 8.0 19.3 0.00 0.13 0.05 70 1013.9
20260507073008 20 113 1.6 12.9 0.00 0.13 0.05 71 1013.8
20260507072505 19 188 1.6 8.0 0.00 0.13 0.05 71 1013.8
20260507070505 18 127 0.0 1.6 0.00 0.13 0.05 74 1014.0
20260507070011 18 139 0.0 11.3 0.00 0.13 0.05 78 1013.9
20260507065005 18 134 0.0 12.9 0.00 0.13 0.05 76 1013.9
20260507064504 18 202 0.0 4.8 0.00 0.13 0.05 76 1013.9
20260507064006 18 204 1.6 12.9 0.00 0.13 0.05 76 1013.9
20260507063008 17 94 0.0 0.0 0.00 0.13 0.05 79 1013.8
20260507062505 17 92 0.0 4.8 0.00 0.13 0.05 78 1013.7
20260507062004 17 63 0.0 0.0 0.00 0.13 0.05 80 1013.6
20260507061005 17 40 0.0 0.0 0.00 0.13 0.05 82 1013.6
20260507060505 16 40 0.0 0.0 0.00 0.13 0.05 83 1013.6
20260507060008 16 40 0.0 8.0 0.00 0.13 0.05 84 1013.6
20260507055506 16 43 0.0 9.7 0.00 0.13 0.05 85 1013.5
20260507053008 15 46 0.0 4.8 0.00 0.13 0.05 87 1013.4
20260507051505 15 40 0.0 0.0 0.00 0.15 0.05 89 1013.4
20260507050008 15 45 0.0 8.0 0.00 0.15 0.05 90 1013.3
20260507043505 14 52 1.6 11.3 0.00 0.15 0.05 90 1013.3
20260507042005 14 51 0.0 0.0 0.00 0.15 0.05 90 1013.3
20260507041005 14 28 14.5 24.1 0.00 0.15 0.05 90 1013.2
20260507040008 14 42 1.6 16.1 0.00 0.15 0.05 91 1013.2
20260507035004 14 49 4.8 11.3 0.00 0.15 0.05 91 1013.2
20260507033007 14 63 0.0 8.0 0.00 0.15 0.05 91 1013.3
20260507032004 14 42 0.0 8.0 0.00 0.15 0.05 91 1013.3
20260507030504 13 51 0.0 19.3 0.00 0.15 0.05 91 1013.3
20260507025505 13 28 12.9 29.0 0.00 0.15 0.05 91 1013.2
20260507024504 14 31 22.5 38.6 0.03 0.15 0.05 91 1013.2
20260507024005 14 37 14.5 29.0 0.03 0.15 0.05 91 1013.2
20260507023007 14 38 19.3 32.2 0.05 0.15 0.05 91 1013.2
20260507022006 14 39 9.7 29.0 0.05 0.15 0.05 91 1013.2
20260507021505 14 52 9.7 29.0 0.05 0.15 0.05 91 1013.2
20260507021006 14 42 14.5 25.7 0.05 0.15 0.05 91 1013.3
20260507015005 14 49 11.3 25.7 0.05 0.15 0.05 90 1013.3